{"data":{"norad_id":56886,"epoch":"2026-05-24T23:48:33.780960Z","epoch_age_seconds":86386,"freshness":"FRESH","line1":"1 56886U 23083L   26144.99205765 -.00001507  00000+0 -45251-4 0  9994","line2":"2 56886  43.0042  13.9529 0001181 263.8122  96.2596 15.27582365163306","mean_motion":15.27582365,"eccentricity":0.0001181,"inclination_deg":43.0042,"raan_deg":13.9529,"arg_perigee_deg":263.8122,"mean_anomaly_deg":96.2596,"bstar":-4.5251e-5,"rev_number":16330,"period_min":94.266602770058,"perigee_km":482.23170914639,"apogee_km":483.85231962958,"semimajor_km":6861.179014388,"source":"CELESTRAK","updated_at":"2026-05-25T13:38:18.168782Z"}}